Regional Weather Roundup
Issued by NWS

Home | Current Version | Previous Version | Graphics & Text | Print | Product List | Glossary On
Versions: 1 2 3 4 5 6 7 8 9 10 11 12 13 14 15 16 17 18 19 20 21 22 23 24 25 26 27 28
000
ASUS45 KCYS 290410
RWRWY

WYOMING REGIONAL WEATHER ROUNDUP
NATIONAL WEATHER SERVICE CHEYENNE WY
1000 PM MDT FRI APR 28 2017

NOTE:  "FAIR" INDICATES FEW OR NO CLOUDS BELOW 12,000 FEET
WITH NO SIGNIFICANT WEATHER AND/OR OBSTRUCTIONS TO VISIBILITY.

WYZ001-290500-
YELLOWSTONE NATIONAL PARK

CITY           SKY/WX    TMP DP  RH WIND       PRES   REMARKS
LK YELLOWSTONE   N/A     27  18  69 VRB3      30.12R
W YELLOWSTONE  NOT AVBL

$$
WYZ002>013-054>058-071-098>099-290500-
NORTHERN WYOMING

CITY           SKY/WX    TMP DP  RH WIND       PRES   REMARKS
JACKSON        FAIR      34  25  69 NE13      30.07R WCI  25
CODY           MOCLDY    34  30  85 CALM      30.17R
GREYBULL       CLOUDY    42  29  59 W8        30.15R
WORLAND        LGT SNOW  35  32  88 E9G21     30.17R FOG     WCI  28
SHERIDAN       CLOUDY    34  31  88 CALM      30.19R
BUFFALO        FAIR      33  22  63 SW3       30.19R
GILLETTE       MOCLDY    32  30  92 W12       30.18R WCI  23
HULETT         FAIR      36  28  75 S5        30.19R WCI  32
NEWCASTLE      FAIR      34  30  86 SE3       30.19R

$$
WYZ014>020-022>026-101>103-290500-
CENTRAL WYOMING

CITY           SKY/WX    TMP DP  RH WIND       PRES   REMARKS
BIG PINEY      FAIR      29  15  56 E6        30.05R WCI  23
PINEDALE       FAIR      30  16  55 N8        30.05R WCI  23
DUBOIS         LGT SNOW  27  23  86 SE12      30.10R WCI  16
LANDER         LGT SNOW  29  28  96 E3        30.15R FOG
RIVERTON       LGT SNOW  29  29 100 E5        30.15R FOG     WCI  24
CASPER         LGT SNOW  29  27  92 NE12      30.15R FOG     WCI  19
DOUGLAS        CLOUDY    28  26  92 N5        30.17R WCI  23

$$
WYZ021-027>030-104>119-290500-
SOUTHERN WYOMING

CITY           SKY/WX    TMP DP  RH WIND       PRES   REMARKS
EVANSTON       CLOUDY    27  23  85 E7        30.02R WCI  19
FORT BRIDGER   CLOUDY    29  28  95 E13       30.06R WCI  19
ROCK SPRINGS   CLOUDY    29  23  78 NE23G29   30.03R WCI  15
DIXON            N/A     33  24  68 NE7       29.95R WCI  27
RAWLINS        CLOUDY    26  20  77 E25G35    30.04R WCI  11
SARATOGA       FAIR      28  19  69 E17G26    30.00R WCI  16
LARAMIE        CLOUDY    24  19  81 E18G26    30.03R WCI  10
CHEYENNE       LGT SNOW  27  24  89 NE10G20   30.08R FOG     WCI  17
TORRINGTON     CLOUDY    33  32  96 CALM      30.15R
PINE BLUFFS    CLOUDY    30  30 100 NE12      30.11S WCI  21

$$




USA.gov is the U.S. government's official web portal to all federal, state and local government web resources and services.